This is the latest recevied weather packets stored in our database for station/object TA3MHA. If no packets are shown the sender has not sent any weather packets the latest 10 day(s).
| Time | Temp. | Humidity | Pressure | Rain* | Wind** | Luminosity | Snow |
|---|---|---|---|---|---|---|---|
| 1777019701 | 15° C | 46% | - | 0 mm | - | 781 W/m² | - |
| 1777019401 | 15° C | 44% | - | 0 mm | - | 773 W/m² | - |
| 1777019101 | 15.56° C | 42% | - | 0 mm | - | 763 W/m² | - |
| 1777018801 | 15.56° C | 42% | - | 0 mm | - | 752 W/m² | - |
| 1777018501 | 15.56° C | 42% | - | 0 mm | - | 744 W/m² | - |
| 1777018201 | 15.56° C | 44% | - | 0 mm | - | 734 W/m² | - |
| 1777017900 | 16.11° C | 42% | - | 0 mm | - | 726 W/m² | - |
| 1777017600 | 16.11° C | 42% | - | 0 mm | - | 716 W/m² | - |
| 1777017301 | 15.56° C | 42% | - | 0 mm | - | 704 W/m² | - |
| 1777017000 | 15° C | 42% | - | 0 mm | - | 692 W/m² | - |
| 1777016700 | 15.56° C | 43% | - | 0 mm | - | 677 W/m² | - |
| 1777016400 | 14.44° C | 45% | - | 0 mm | - | 666 W/m² | - |
| 1777016101 | 14.44° C | 44% | - | 0 mm | - | 655 W/m² | - |
| 1777015801 | 15° C | 44% | - | 0 mm | - | 643 W/m² | - |
| 1777015501 | 15° C | 48% | - | 0 mm | - | 629 W/m² | - |
| 1777015201 | 15° C | 44% | - | 0 mm | - | 613 W/m² | - |
| 1777014901 | 13.89° C | 45% | - | 0 mm | - | 599 W/m² | - |
| 1777014601 | 14.44° C | 47% | - | 0 mm | - | 583 W/m² | - |
| 1777014301 | 14.44° C | 47% | - | 0 mm | - | 567 W/m² | - |
| 1777014001 | 15° C | 48% | - | 0 mm | - | 553 W/m² | - |
| 1777013701 | 13.89° C | 52% | - | 0 mm | - | 538 W/m² | - |
| 1777013401 | 13.33° C | 52% | - | 0 mm | - | 526 W/m² | - |
| 1777013101 | 13.89° C | 49% | - | 0 mm | - | 511 W/m² | - |
| 1777012801 | 13.89° C | 49% | - | 0 mm | - | 495 W/m² | - |
| 1777012501 | 14.44° C | 47% | - | 0 mm | - | 479 W/m² | - |
* Rain latest hour (hover to see other rain measurements)
** Current wind speed in m/s (hover to see current wind gust speed)